Location: Croydon
(51.3762°N, 0.0982°W)
Time: 03:43:31
(UTC+00:00)

A-11 Canister half - Visible Passes

Search period start: 14 November 2019 00:00
Search period end: 24 November 2019 00:00
Orbit: 1527 x 1682 km, 47.3° (Epoch: 12 November)

Date Brightness Start Highest point End Pass type
(mag) Time Alt. Az. Time Alt. Az. Time Alt. Az.
14 Nov 9.7 18:33:58 10° W 18:42:53 46° SSW 18:50:17 15° SE visible
14 Nov 10.7 20:40:22 10° W 20:45:54 17° SW 20:48:38 15° SSW visible
15 Nov 9.8 18:12:18 10° W 18:21:18 47° SSW 18:30:03 10° SE visible
15 Nov 10.8 20:18:32 10° W 20:24:23 18° SW 20:28:49 13° SSW visible
16 Nov 9.8 17:50:39 10° W 17:59:44 48° SSW 18:08:33 10° SE visible
16 Nov 10.8 19:56:43 10° W 20:02:53 20° SW 20:08:57 10° S visible
17 Nov 9.8 17:28:59 10° W 17:38:08 50° SSW 17:47:02 10° SE visible
17 Nov 10.8 19:34:56 10° W 19:41:21 21° SW 19:47:42 10° S visible
18 Nov 9.8 17:07:20 10° W 17:16:33 51° SSW 17:25:30 10° SE visible
18 Nov 10.8 19:13:09 10° W 19:19:50 22° SW 19:26:24 10° S visible
19 Nov 9.8 16:45:40 10° W 16:54:58 53° SSW 17:03:58 10° SE visible
19 Nov 10.8 18:51:24 10° W 18:58:18 23° SW 19:05:06 10° S visible
20 Nov 9.9 16:24:00 10° W 16:33:22 54° SSW 16:42:26 10° SE visible
20 Nov 10.8 18:29:39 10° W 18:36:47 24° SW 18:43:46 10° S visible
21 Nov 10.9 18:07:54 10° W 18:15:14 25° SW 18:22:25 10° S visible
22 Nov 10.9 17:46:10 10° W 17:53:42 27° SW 18:01:03 10° S visible
23 Nov 10.9 17:24:26 10° W 17:32:09 28° SW 17:39:41 10° S visible
